Time,TemperatureF,DewpointF,PressureIn,WindDirection,WindDirectionDegrees,WindSpeedMPH,WindSpeedGustMPH,Humidity,HourlyPrecipIn,Conditions,Clouds,dailyrainin,SoftwareType,DateUTC
2013-11-10 00:01:00,37.8,36.0,30.09,NNE,15,0.0,0.0,93,0.02,,,0.00,WeatherDisplay:10.37,2013-11-10 09:01:00,
2013-11-10 00:06:00,37.8,36.0,30.09,NNE,15,0.0,0.0,93,0.02,CLR,,0.00,WeatherDisplay:10.37,2013-11-10 09:06:00,
2013-11-10 00:11:00,37.7,35.9,30.08,NNE,15,0.0,0.0,93,0.02,RA,,0.01,WeatherDisplay:10.37,2013-11-10 09:11:00,
2013-11-10 00:16:00,37.7,35.9,30.08,NNE,15,0.0,0.0,93,0.02,RA,,0.01,WeatherDisplay:10.37,2013-11-10 09:16:00,
2013-11-10 00:21:00,37.6,35.8,30.08,NNE,15,0.0,0.0,93,0.02,,,0.01,WeatherDisplay:10.37,2013-11-10 09:21:00,
2013-11-10 00:26:00,37.6,35.8,30.08,NNE,15,0.0,0.0,93,0.02,CLR,,0.01,WeatherDisplay:10.37,2013-11-10 09:26:00,
2013-11-10 00:31:00,37.5,35.9,30.08,NNE,15,0.0,0.0,94,0.03,RA,,0.02,WeatherDisplay:10.37,2013-11-10 09:31:00,
2013-11-10 00:36:00,37.5,35.9,30.08,NNE,15,0.0,0.0,94,0.03,RA,,0.02,WeatherDisplay:10.37,2013-11-10 09:36:00,
2013-11-10 00:41:00,37.5,35.9,30.08,NNE,15,0.0,0.0,94,0.00,RA,,0.03,WeatherDisplay:10.37,2013-11-10 09:41:00,
2013-11-10 00:46:00,37.5,35.9,30.07,NNE,15,0.0,0.0,94,0.00,RA,,0.03,WeatherDisplay:10.37,2013-11-10 09:46:00,
2013-11-10 00:51:00,37.4,35.8,30.07,NNE,15,0.0,0.0,94,0.00,CLR,,0.04,WeatherDisplay:10.37,2013-11-10 09:51:00,
2013-11-10 00:56:00,37.3,35.7,30.07,NNE,15,0.0,0.0,94,0.00,RA,,0.04,WeatherDisplay:10.37,2013-11-10 09:56:00,
2013-11-10 01:02:00,37.2,35.6,30.07,NNE,15,0.0,0.0,94,0.04,RA,,0.05,WeatherDisplay:10.37,2013-11-10 10:02:00,
2013-11-10 01:07:00,37.2,35.6,30.07,NNE,15,0.0,0.0,94,0.05,RA,,0.05,WeatherDisplay:10.37,2013-11-10 10:07:00,
2013-11-10 01:12:00,37.1,35.5,30.06,NNE,15,0.0,0.0,94,0.04,RA,,0.05,WeatherDisplay:10.37,2013-11-10 10:12:00,
2013-11-10 01:17:00,37.1,35.5,30.06,NNE,15,0.0,0.0,94,0.05,RA,,0.06,WeatherDisplay:10.37,2013-11-10 10:17:00,
2013-11-10 01:22:00,37.0,35.4,30.06,NNE,15,0.0,0.0,94,0.05,RA,,0.06,WeatherDisplay:10.37,2013-11-10 10:22:00,
2013-11-10 01:27:00,37.0,35.4,30.06,NNE,15,0.0,0.0,94,0.06,RA,,0.07,WeatherDisplay:10.37,2013-11-10 10:27:00,
2013-11-10 01:32:00,37.0,35.4,30.06,NNE,15,0.0,0.0,94,0.05,RA,,0.07,WeatherDisplay:10.37,2013-11-10 10:32:00,
2013-11-10 01:36:00,37.1,35.5,30.06,NNE,15,0.0,0.0,94,0.05,,,0.07,WeatherDisplay:10.37,2013-11-10 10:36:00,
2013-11-10 01:41:00,37.2,35.6,30.05,NNE,15,0.0,0.0,94,0.04,CLR,,0.07,WeatherDisplay:10.37,2013-11-10 10:41:00,
2013-11-10 01:46:00,37.2,35.6,30.05,NNE,15,0.0,0.0,94,0.04,CLR,,0.08,WeatherDisplay:10.37,2013-11-10 10:46:00,
2013-11-10 01:51:00,37.1,35.5,30.05,NNE,15,0.0,0.0,94,0.05,RA,,0.08,WeatherDisplay:10.37,2013-11-10 10:51:00,
2013-11-10 01:56:00,37.0,35.4,30.05,NNE,15,0.0,0.0,94,0.04,RA,,0.08,WeatherDisplay:10.37,2013-11-10 10:56:00,
2013-11-10 02:01:00,36.9,35.3,30.05,NNE,15,0.0,0.0,94,0.05,RA,,0.09,WeatherDisplay:10.37,2013-11-10 11:01:00,
2013-11-10 02:06:00,36.8,35.2,30.05,NNE,15,0.0,0.0,94,0.04,RA,,0.09,WeatherDisplay:10.37,2013-11-10 11:06:00,
2013-11-10 02:11:00,36.6,35.0,30.05,NNE,15,0.0,0.0,94,0.05,RA,,0.10,WeatherDisplay:10.37,2013-11-10 11:11:00,
2013-11-10 02:16:00,36.5,34.9,30.05,NNE,15,0.0,0.0,94,0.04,RA,,0.10,WeatherDisplay:10.37,2013-11-10 11:16:00,
2013-11-10 02:21:00,36.4,34.8,30.04,NNE,15,0.0,0.0,94,0.05,RA,,0.11,WeatherDisplay:10.37,2013-11-10 11:21:00,
2013-11-10 02:26:00,36.4,34.8,30.04,NNE,15,0.0,0.0,94,0.04,RA,,0.11,WeatherDisplay:10.37,2013-11-10 11:26:00,
2013-11-10 02:31:00,36.4,34.8,30.04,NNE,15,0.0,0.0,94,0.04,,,0.12,WeatherDisplay:10.37,2013-11-10 11:31:00,
2013-11-10 02:36:00,36.4,34.8,30.04,NNE,15,0.0,0.0,94,0.05,RA,,0.12,WeatherDisplay:10.37,2013-11-10 11:36:00,
2013-11-10 02:41:00,36.3,34.7,30.04,NNE,15,0.0,0.0,94,0.06,RA,,0.13,WeatherDisplay:10.37,2013-11-10 11:41:00,
2013-11-10 02:46:00,36.3,34.5,30.03,NNE,15,0.0,0.0,93,0.07,RA,,0.14,WeatherDisplay:10.37,2013-11-10 11:46:00,
2013-11-10 02:51:00,36.3,34.7,30.04,NNE,15,0.0,0.0,94,0.06,RA,,0.14,WeatherDisplay:10.37,2013-11-10 11:51:00,
2013-11-10 02:56:00,36.2,34.6,30.03,NNE,15,0.0,0.0,94,0.07,RA,,0.15,WeatherDisplay:10.37,2013-11-10 11:56:00,
2013-11-10 03:01:00,36.2,34.6,30.03,NNE,15,0.0,0.0,94,0.06,RA,,0.15,WeatherDisplay:10.37,2013-11-10 12:01:00,
2013-11-10 03:06:00,36.1,34.5,30.03,NNE,15,0.0,0.0,94,0.07,RA,,0.16,WeatherDisplay:10.37,2013-11-10 12:06:00,
2013-11-10 03:11:00,36.0,34.4,30.03,NNE,15,0.0,0.0,94,0.07,RA,,0.17,WeatherDisplay:10.37,2013-11-10 12:11:00,
2013-11-10 03:16:00,36.0,34.4,30.03,NNE,15,0.0,0.0,94,0.07,RA,,0.17,WeatherDisplay:10.37,2013-11-10 12:16:00,
2013-11-10 03:21:00,36.0,34.4,30.03,NNE,15,0.0,0.0,94,0.06,,,0.17,WeatherDisplay:10.37,2013-11-10 12:21:00,
2013-11-10 03:26:00,36.0,34.4,30.02,NNE,15,0.0,0.0,94,0.07,RA,,0.18,WeatherDisplay:10.37,2013-11-10 12:26:00,
2013-11-10 03:31:00,36.0,34.4,30.02,NNE,15,0.0,0.0,94,0.07,RA,,0.18,WeatherDisplay:10.37,2013-11-10 12:31:00,
2013-11-10 03:36:00,36.1,34.5,30.02,NNE,15,0.0,0.0,94,0.06,,,0.18,WeatherDisplay:10.37,2013-11-10 12:36:00,
2013-11-10 03:41:00,36.1,34.5,30.01,NNE,15,0.0,0.0,94,0.05,CLR,,0.18,WeatherDisplay:10.37,2013-11-10 12:41:00,
2013-11-10 03:46:00,36.1,34.5,30.01,NNE,15,0.0,0.0,94,0.05,RA,,0.19,WeatherDisplay:10.37,2013-11-10 12:46:00,
2013-11-10 03:51:00,36.2,34.6,30.01,NNE,15,0.0,0.0,94,0.05,RA,,0.19,WeatherDisplay:10.37,2013-11-10 12:51:00,
2013-11-10 03:56:00,36.2,34.6,30.01,NNE,15,0.0,0.0,94,0.04,,,0.19,WeatherDisplay:10.37,2013-11-10 12:56:00,
2013-11-10 04:01:00,36.2,34.6,30.00,NNE,15,0.0,0.0,94,0.04,CLR,,0.19,WeatherDisplay:10.37,2013-11-10 13:01:00,
2013-11-10 04:06:00,36.2,34.6,30.00,NNE,15,0.0,0.0,94,0.03,CLR,,0.19,WeatherDisplay:10.37,2013-11-10 13:06:00,
2013-11-10 04:11:00,36.2,34.6,30.00,NNE,15,0.0,0.0,94,0.02,CLR,,0.19,WeatherDisplay:10.37,2013-11-10 13:11:00,
2013-11-10 04:16:00,36.2,34.6,29.99,NNE,15,0.0,0.0,94,0.02,CLR,,0.19,WeatherDisplay:10.37,2013-11-10 13:16:00,
2013-11-10 04:21:00,36.1,34.5,29.99,NNE,15,0.0,0.0,94,0.03,RA,,0.20,WeatherDisplay:10.37,2013-11-10 13:21:00,
2013-11-10 04:26:00,36.1,34.5,29.99,NNE,15,0.0,0.0,94,0.02,RA,,0.20,WeatherDisplay:10.37,2013-11-10 13:26:00,
2013-11-10 04:31:00,36.1,34.5,29.99,NNE,15,0.0,0.0,94,0.02,,,0.20,WeatherDisplay:10.37,2013-11-10 13:31:00,
2013-11-10 04:36:00,36.1,34.5,29.99,NNE,15,0.0,0.0,94,0.02,CLR,,0.20,WeatherDisplay:10.37,2013-11-10 13:36:00,
2013-11-10 04:41:00,36.1,34.5,29.98,NNE,15,0.0,0.0,94,0.02,CLR,,0.20,WeatherDisplay:10.37,2013-11-10 13:41:00,
2013-11-10 04:46:00,36.0,34.4,29.98,NNE,15,0.0,0.0,94,0.02,RA,,0.21,WeatherDisplay:10.37,2013-11-10 13:46:00,
2013-11-10 04:51:00,35.9,34.3,29.98,NNE,15,0.0,0.0,94,0.02,RA,,0.21,WeatherDisplay:10.37,2013-11-10 13:51:00,
2013-11-10 04:56:00,35.9,34.3,29.97,NNE,15,0.0,0.0,94,0.02,CLR,,0.21,WeatherDisplay:10.37,2013-11-10 13:56:00,
2013-11-10 05:01:00,35.8,34.2,29.97,NNE,15,0.0,0.0,94,0.02,CLR,,0.21,WeatherDisplay:10.37,2013-11-10 14:01:00,
2013-11-10 05:06:00,35.7,34.1,29.97,NNE,15,0.0,0.0,94,0.03,RA,,0.22,WeatherDisplay:10.37,2013-11-10 14:06:00,
2013-11-10 05:11:00,35.7,34.1,29.97,NNE,15,0.0,0.0,94,0.04,RA,,0.23,WeatherDisplay:10.37,2013-11-10 14:11:00,
2013-11-10 05:16:00,35.6,34.0,29.97,NNE,15,0.0,0.0,94,0.04,RA,,0.23,WeatherDisplay:10.37,2013-11-10 14:16:00,
2013-11-10 05:21:00,35.6,34.0,29.96,NNE,15,0.0,0.0,94,0.04,RA,,0.24,WeatherDisplay:10.37,2013-11-10 14:21:00,
2013-11-10 05:26:00,35.6,34.0,29.96,NNE,15,0.0,0.0,94,0.04,RA,,0.25,WeatherDisplay:10.37,2013-11-10 14:26:00,
2013-11-10 05:31:00,35.6,34.0,29.95,NNE,15,0.0,0.0,94,0.05,RA,,0.25,WeatherDisplay:10.37,2013-11-10 14:31:00,
2013-11-10 05:36:00,35.6,34.0,29.95,NNE,15,0.0,0.0,94,0.05,RA,,0.25,WeatherDisplay:10.37,2013-11-10 14:36:00,
2013-11-10 05:41:00,35.6,34.0,29.95,NNE,15,0.0,0.0,94,0.06,RA,,0.26,WeatherDisplay:10.37,2013-11-10 14:41:00,
2013-11-10 05:46:00,35.6,34.0,29.95,NNE,15,0.0,0.0,94,0.05,RA,,0.26,WeatherDisplay:10.37,2013-11-10 14:46:00,
2013-11-10 05:51:00,35.6,34.0,29.95,NNE,15,0.0,0.0,94,0.05,CLR,,0.26,WeatherDisplay:10.37,2013-11-10 14:51:00,
2013-11-10 05:56:00,35.5,33.9,29.95,NNE,15,0.0,0.0,94,0.06,RA,,0.27,WeatherDisplay:10.37,2013-11-10 14:56:00,
2013-11-10 06:01:00,35.5,33.9,29.95,NNE,15,0.0,0.0,94,0.06,RA,,0.27,WeatherDisplay:10.37,2013-11-10 15:01:00,
2013-11-10 06:06:00,35.5,33.9,29.95,NNE,15,0.0,0.0,94,0.05,CLR,,0.27,WeatherDisplay:10.37,2013-11-10 15:06:00,
2013-11-10 06:11:00,35.5,33.9,29.95,NNE,15,0.0,0.0,94,0.04,CLR,,0.27,WeatherDisplay:10.37,2013-11-10 15:11:00,
2013-11-10 06:16:00,35.5,33.9,29.94,NNE,15,0.0,0.0,94,0.05,RA,,0.28,WeatherDisplay:10.37,2013-11-10 15:16:00,
2013-11-10 06:21:00,35.6,34.0,29.94,NNE,15,0.0,0.0,94,0.04,RA,,0.28,WeatherDisplay:10.37,2013-11-10 15:21:00,
2013-11-10 06:26:00,35.6,34.0,29.94,NNE,15,0.0,0.0,94,0.05,RA,,0.29,WeatherDisplay:10.37,2013-11-10 15:26:00,
2013-11-10 06:31:00,35.6,34.0,29.94,NNE,15,0.0,0.0,94,0.04,RA,,0.29,WeatherDisplay:10.37,2013-11-10 15:31:00,
2013-11-10 06:36:00,35.7,34.1,29.94,NNE,15,0.0,0.0,94,0.04,CLR,,0.30,WeatherDisplay:10.37,2013-11-10 15:36:00,
2013-11-10 06:41:00,35.7,34.1,29.93,NNE,15,0.0,0.0,94,0.04,RA,,0.30,WeatherDisplay:10.37,2013-11-10 15:41:00,
2013-11-10 06:46:00,35.7,34.1,29.93,NNE,15,0.0,0.0,94,0.04,RA,,0.30,WeatherDisplay:10.37,2013-11-10 15:46:00,
2013-11-10 06:51:00,35.6,34.0,29.93,NNE,15,0.0,0.0,94,0.05,RA,,0.31,WeatherDisplay:10.37,2013-11-10 15:51:00,
2013-11-10 06:56:00,35.6,33.8,29.93,NNE,15,0.0,0.0,93,0.04,RA,,0.31,WeatherDisplay:10.37,2013-11-10 15:56:00,
2013-11-10 07:01:00,35.6,33.8,29.92,NNE,15,0.0,0.0,93,0.05,RA,,0.32,WeatherDisplay:10.37,2013-11-10 16:01:00,
2013-11-10 07:06:00,35.7,33.9,29.92,NNE,15,0.0,0.0,93,0.05,RA,,0.32,WeatherDisplay:10.37,2013-11-10 16:06:00,
2013-11-10 07:11:00,35.7,33.9,29.92,NNE,15,0.0,0.0,93,0.06,RA,,0.33,WeatherDisplay:10.37,2013-11-10 16:11:00,
2013-11-10 07:16:00,35.7,33.9,29.92,NNE,15,0.0,0.0,93,0.05,RA,,0.33,WeatherDisplay:10.37,2013-11-10 16:16:00,
2013-11-10 07:21:00,35.6,33.8,29.92,NNE,15,0.0,0.0,93,0.06,RA,,0.34,WeatherDisplay:10.37,2013-11-10 16:21:00,
2013-11-10 07:26:00,35.6,33.8,29.91,NNE,15,0.0,0.0,93,0.05,RA,,0.34,WeatherDisplay:10.37,2013-11-10 16:26:00,
2013-11-10 07:31:00,35.6,34.0,29.90,NNE,15,0.0,0.0,94,0.06,RA,,0.35,WeatherDisplay:10.37,2013-11-10 16:31:00,
2013-11-10 07:36:00,35.6,34.0,29.90,NNE,15,0.0,0.0,94,0.06,RA,,0.35,WeatherDisplay:10.37,2013-11-10 16:36:00,
2013-11-10 07:41:00,35.6,34.0,29.90,NNE,15,0.0,0.0,94,0.05,CLR,,0.35,WeatherDisplay:10.37,2013-11-10 16:41:00,
2013-11-10 07:46:00,35.6,34.0,29.90,NNE,15,0.0,0.0,94,0.06,RA,,0.36,WeatherDisplay:10.37,2013-11-10 16:46:00,
2013-11-10 07:51:00,35.6,33.8,29.90,NNE,15,0.0,0.0,93,0.05,RA,,0.36,WeatherDisplay:10.37,2013-11-10 16:51:00,
2013-11-10 07:56:00,35.7,34.1,29.89,NNE,15,0.0,0.0,94,0.06,RA,,0.37,WeatherDisplay:10.37,2013-11-10 16:56:00,
2013-11-10 08:01:00,35.7,33.9,29.90,NNE,15,0.0,0.0,93,0.05,RA,,0.37,WeatherDisplay:10.37,2013-11-10 17:01:00,
2013-11-10 08:06:00,35.7,33.9,29.89,NNE,15,0.0,0.0,93,0.05,CLR,,0.37,WeatherDisplay:10.37,2013-11-10 17:06:00,
2013-11-10 08:11:00,35.7,34.1,29.89,NNE,15,0.0,0.0,94,0.05,RA,,0.38,WeatherDisplay:10.37,2013-11-10 17:11:00,
2013-11-10 08:16:00,35.6,33.8,29.89,NNE,15,0.0,0.0,93,0.05,RA,,0.39,WeatherDisplay:10.37,2013-11-10 17:16:00,
2013-11-10 08:21:00,35.6,34.0,29.89,NNE,15,0.0,0.0,94,0.05,RA,,0.39,WeatherDisplay:10.37,2013-11-10 17:21:00,
2013-11-10 08:26:00,35.6,33.8,29.89,NNE,15,0.0,0.0,93,0.06,RA,,0.40,WeatherDisplay:10.37,2013-11-10 17:26:00,
2013-11-10 08:31:00,35.6,33.8,29.89,NNE,15,0.0,0.0,93,0.06,RA,,0.41,WeatherDisplay:10.37,2013-11-10 17:31:00,
2013-11-10 08:36:00,35.5,33.7,29.88,NNE,15,0.0,0.0,93,0.06,RA,,0.41,WeatherDisplay:10.37,2013-11-10 17:36:00,
2013-11-10 08:41:00,35.4,33.6,29.88,NNE,15,0.0,0.0,93,0.07,RA,,0.43,WeatherDisplay:10.37,2013-11-10 17:41:00,
2013-11-10 08:46:00,35.3,33.5,29.88,NNE,15,0.0,0.0,93,0.07,RA,,0.43,WeatherDisplay:10.37,2013-11-10 17:46:00,
2013-11-10 08:51:00,35.3,33.5,29.88,NNE,15,0.0,0.0,93,0.08,RA,,0.44,WeatherDisplay:10.37,2013-11-10 17:51:00,
2013-11-10 08:56:00,35.2,33.4,29.87,NNE,15,0.0,0.0,93,0.08,RA,,0.45,WeatherDisplay:10.37,2013-11-10 17:56:00,
2013-11-10 09:01:00,35.2,33.4,29.87,NNE,15,0.0,0.0,93,0.09,RA,,0.46,WeatherDisplay:10.37,2013-11-10 18:01:00,
2013-11-10 09:06:00,35.2,33.4,29.87,NNE,15,0.0,0.0,93,0.10,RA,,0.47,WeatherDisplay:10.37,2013-11-10 18:06:00,
2013-11-10 09:11:00,35.2,33.4,29.86,NNE,15,0.0,0.0,93,0.09,RA,,0.47,WeatherDisplay:10.37,2013-11-10 18:11:00,
2013-11-10 09:16:00,35.2,33.4,29.86,NNE,15,0.0,0.0,93,0.10,RA,,0.48,WeatherDisplay:10.37,2013-11-10 18:16:00,
2013-11-10 09:21:00,35.3,33.5,29.86,NNE,15,0.0,0.0,93,0.10,RA,,0.49,WeatherDisplay:10.37,2013-11-10 18:21:00,
2013-11-10 09:26:00,35.3,33.7,29.86,NNE,15,0.0,0.0,94,0.09,RA,,0.50,WeatherDisplay:10.37,2013-11-10 18:26:00,
2013-11-10 09:31:00,35.3,33.7,29.86,NNE,15,0.0,0.0,94,0.09,RA,,0.51,WeatherDisplay:10.37,2013-11-10 18:31:00,
2013-11-10 09:36:00,35.4,33.8,29.86,NNE,15,0.0,0.0,94,0.10,RA,,0.51,WeatherDisplay:10.37,2013-11-10 18:36:00,
2013-11-10 09:41:00,35.4,33.8,29.86,NNE,15,0.0,0.0,94,0.10,RA,,0.52,WeatherDisplay:10.37,2013-11-10 18:41:00,
2013-11-10 09:46:00,35.4,33.8,29.86,NNE,15,0.0,0.0,94,0.10,RA,,0.53,WeatherDisplay:10.37,2013-11-10 18:46:00,
2013-11-10 09:51:00,35.3,33.7,29.86,NNE,15,0.0,0.0,94,0.10,RA,,0.54,WeatherDisplay:10.37,2013-11-10 18:51:00,
2013-11-10 09:56:00,35.2,33.6,29.86,NNE,15,0.0,0.0,94,0.10,RA,,0.55,WeatherDisplay:10.37,2013-11-10 18:56:00,
2013-11-10 10:01:00,35.2,33.6,29.86,NNE,15,0.0,0.0,94,0.10,RA,,0.56,WeatherDisplay:10.37,2013-11-10 19:01:00,
2013-11-10 10:06:00,35.1,33.3,29.86,NNE,15,0.0,0.0,93,0.09,RA,,0.57,WeatherDisplay:10.37,2013-11-10 19:06:00,
2013-11-10 10:11:00,35.0,33.2,29.85,NNE,15,0.0,0.0,93,0.10,RA,,0.57,WeatherDisplay:10.37,2013-11-10 19:11:00,
2013-11-10 10:16:00,34.9,33.3,29.85,NNE,15,0.0,0.0,94,0.10,RA,,0.58,WeatherDisplay:10.37,2013-11-10 19:16:00,
2013-11-10 10:21:00,34.8,33.2,29.85,NNE,15,0.0,0.0,94,0.09,RA,,0.59,WeatherDisplay:10.37,2013-11-10 19:21:00,
2013-11-10 10:26:00,34.8,33.2,29.85,NNE,15,0.0,0.0,94,0.10,RA,,0.59,WeatherDisplay:10.37,2013-11-10 19:26:00,
2013-11-10 10:31:00,34.8,33.2,29.85,NNE,15,0.0,0.0,94,0.09,RA,,0.59,WeatherDisplay:10.37,2013-11-10 19:31:00,
2013-11-10 10:36:00,34.8,33.0,29.84,NNE,15,0.0,0.0,93,0.09,RA,,0.60,WeatherDisplay:10.37,2013-11-10 19:36:00,
2013-11-10 10:41:00,34.8,33.2,29.84,NNE,15,0.0,0.0,94,0.08,RA,,0.60,WeatherDisplay:10.37,2013-11-10 19:41:00,
2013-11-10 10:46:00,34.9,33.3,29.84,NNE,15,0.0,0.0,94,0.08,RA,,0.61,WeatherDisplay:10.37,2013-11-10 19:46:00,
2013-11-10 10:51:00,34.9,33.3,29.84,NNE,15,0.0,0.0,94,0.07,RA,,0.61,WeatherDisplay:10.37,2013-11-10 19:51:00,
2013-11-10 10:56:00,34.9,33.3,29.84,NNE,15,0.0,0.0,94,0.07,RA,,0.62,WeatherDisplay:10.37,2013-11-10 19:56:00,
2013-11-10 11:01:00,34.8,33.2,29.83,NNE,15,0.0,0.0,94,0.07,RA,,0.63,WeatherDisplay:10.37,2013-11-10 20:01:00,
2013-11-10 11:06:00,34.7,33.2,29.83,NNE,15,0.0,0.0,94,0.07,RA,,0.63,WeatherDisplay:10.37,2013-11-10 20:06:00,
2013-11-10 11:11:00,34.7,33.2,29.83,NNE,15,0.0,0.0,94,0.06,,,0.63,WeatherDisplay:10.37,2013-11-10 20:11:00,
2013-11-10 11:16:00,34.7,33.2,29.83,NNE,15,0.0,0.0,94,0.06,RA,,0.64,WeatherDisplay:10.37,2013-11-10 20:16:00,
2013-11-10 11:21:00,34.7,33.2,29.83,NNE,15,0.0,0.0,94,0.06,RA,,0.64,WeatherDisplay:10.37,2013-11-10 20:21:00,
2013-11-10 11:26:00,34.8,33.2,29.83,NNE,15,0.0,0.0,94,0.05,CLR,,0.64,WeatherDisplay:10.37,2013-11-10 20:26:00,
2013-11-10 11:31:00,34.8,33.2,29.82,NNE,15,0.0,0.0,94,0.06,RA,,0.65,WeatherDisplay:10.37,2013-11-10 20:31:00,
2013-11-10 11:36:00,34.9,33.3,29.82,NNE,15,0.0,0.0,94,0.05,RA,,0.65,WeatherDisplay:10.37,2013-11-10 20:36:00,
2013-11-10 11:41:00,34.9,33.3,29.82,NNE,15,0.0,0.0,94,0.05,,,0.65,WeatherDisplay:10.37,2013-11-10 20:41:00,
2013-11-10 11:46:00,34.9,33.3,29.81,NNE,15,0.0,0.0,94,0.04,CLR,,0.65,WeatherDisplay:10.37,2013-11-10 20:46:00,
2013-11-10 11:51:00,35.0,33.4,29.81,NNE,15,0.0,0.0,94,0.04,CLR,,0.65,WeatherDisplay:10.37,2013-11-10 20:51:00,
2013-11-10 11:56:00,35.0,33.4,29.81,NNE,15,0.0,0.0,94,0.03,CLR,,0.65,WeatherDisplay:10.37,2013-11-10 20:56:00,
2013-11-10 12:01:00,35.0,33.4,29.81,NNE,15,0.0,0.0,94,0.03,RA,,0.66,WeatherDisplay:10.37,2013-11-10 21:01:00,
2013-11-10 12:06:00,34.9,33.3,29.81,NNE,15,0.0,0.0,94,0.03,RA,,0.66,WeatherDisplay:10.37,2013-11-10 21:06:00,
2013-11-10 12:11:00,35.0,33.4,29.81,NNE,15,0.0,0.0,94,0.04,RA,,0.67,WeatherDisplay:10.37,2013-11-10 21:11:00,
2013-11-10 12:16:00,35.0,33.4,29.80,NNE,15,0.0,0.0,94,0.03,RA,,0.67,WeatherDisplay:10.37,2013-11-10 21:16:00,
2013-11-10 12:21:00,35.0,33.4,29.80,NNE,15,0.0,0.0,94,0.03,,,0.67,WeatherDisplay:10.37,2013-11-10 21:21:00,
2013-11-10 12:26:00,35.1,33.5,29.80,NNE,15,0.0,0.0,94,0.04,RA,,0.68,WeatherDisplay:10.37,2013-11-10 21:26:00,
2013-11-10 12:31:00,35.2,33.4,29.80,NNE,15,0.0,0.0,93,0.03,RA,,0.69,WeatherDisplay:10.37,2013-11-10 21:31:00,
2013-11-10 12:36:00,35.3,33.5,29.80,NNE,15,0.0,0.0,93,0.04,RA,,0.69,WeatherDisplay:10.37,2013-11-10 21:36:00,
2013-11-10 12:41:00,35.3,33.5,29.80,NNE,15,0.0,0.0,93,0.05,RA,,0.70,WeatherDisplay:10.37,2013-11-10 21:41:00,
2013-11-10 12:46:00,35.3,33.5,29.80,NNE,15,0.0,0.0,93,0.05,RA,,0.70,WeatherDisplay:10.37,2013-11-10 21:46:00,
2013-11-10 12:51:00,35.3,33.7,29.79,NNE,15,0.0,0.0,94,0.06,RA,,0.71,WeatherDisplay:10.37,2013-11-10 21:51:00,
2013-11-10 12:56:00,35.3,33.5,29.79,NNE,15,0.0,0.0,93,0.06,RA,,0.71,WeatherDisplay:10.37,2013-11-10 21:56:00,
2013-11-10 13:01:00,35.3,33.5,29.79,NNE,15,0.0,0.0,93,0.05,CLR,,0.71,WeatherDisplay:10.37,2013-11-10 22:01:00,
2013-11-10 13:06:00,35.3,33.5,29.79,NNE,15,0.0,0.0,93,0.06,RA,,0.72,WeatherDisplay:10.37,2013-11-10 22:06:00,
2013-11-10 13:11:00,35.3,33.5,29.79,NNE,15,0.0,0.0,93,0.05,RA,,0.72,WeatherDisplay:10.37,2013-11-10 22:11:00,
2013-11-10 13:16:00,35.3,33.5,29.78,NNE,15,0.0,0.0,93,0.06,RA,,0.73,WeatherDisplay:10.37,2013-11-10 22:16:00,
2013-11-10 13:21:00,35.4,33.6,29.78,NNE,15,0.0,0.0,93,0.06,RA,,0.73,WeatherDisplay:10.37,2013-11-10 22:21:00,
2013-11-10 13:26:00,35.4,33.6,29.78,NNE,15,0.0,0.0,93,0.05,,,0.73,WeatherDisplay:10.37,2013-11-10 22:26:00,
2013-11-10 13:31:00,35.5,33.7,29.78,NNE,15,0.0,0.0,93,0.05,CLR,,0.73,WeatherDisplay:10.37,2013-11-10 22:31:00,
2013-11-10 13:36:00,35.5,33.7,29.78,NNE,15,0.0,0.0,93,0.05,RA,,0.74,WeatherDisplay:10.37,2013-11-10 22:36:00,
2013-11-10 13:41:00,35.6,33.8,29.77,NNE,15,0.0,0.0,93,0.05,RA,,0.75,WeatherDisplay:10.37,2013-11-10 22:41:00,
2013-11-10 13:46:00,35.7,33.9,29.77,NNE,15,0.0,0.0,93,0.05,RA,,0.75,WeatherDisplay:10.37,2013-11-10 22:46:00,
2013-11-10 13:51:00,35.8,34.0,29.77,NNE,15,0.0,0.0,93,0.04,,,0.75,WeatherDisplay:10.37,2013-11-10 22:51:00,
2013-11-10 13:56:00,35.8,34.0,29.77,NNE,15,0.0,0.0,93,0.05,RA,,0.76,WeatherDisplay:10.37,2013-11-10 22:56:00,
2013-11-10 14:01:00,35.8,33.7,29.77,NNE,15,0.0,0.0,92,0.05,RA,,0.76,WeatherDisplay:10.37,2013-11-10 23:01:00,
2013-11-10 14:06:00,35.8,33.7,29.77,NNE,15,0.0,0.0,92,0.04,,,0.77,WeatherDisplay:10.37,2013-11-10 23:06:00,
2013-11-10 14:11:00,35.8,33.7,29.77,NNE,15,0.0,0.0,92,0.05,RA,,0.77,WeatherDisplay:10.37,2013-11-10 23:11:00,
2013-11-10 14:16:00,35.8,33.7,29.76,NNE,15,0.0,0.0,92,0.04,RA,,0.77,WeatherDisplay:10.37,2013-11-10 23:16:00,
2013-11-10 14:21:00,35.8,33.7,29.76,NNE,15,0.0,0.0,92,0.04,CLR,,0.77,WeatherDisplay:10.37,2013-11-10 23:21:00,
2013-11-10 14:26:00,35.8,33.7,29.76,NNE,15,0.0,0.0,92,0.05,RA,,0.78,WeatherDisplay:10.37,2013-11-10 23:26:00,
2013-11-10 14:31:00,35.7,33.6,29.76,NNE,15,0.0,0.0,92,0.05,RA,,0.78,WeatherDisplay:10.37,2013-11-10 23:31:00,
2013-11-10 14:36:00,35.7,33.6,29.76,NNE,15,0.0,0.0,92,0.05,RA,,0.79,WeatherDisplay:10.37,2013-11-10 23:36:00,
2013-11-10 14:41:00,35.7,33.6,29.76,NNE,15,0.0,0.0,92,0.04,RA,,0.79,WeatherDisplay:10.37,2013-11-10 23:41:00,
2013-11-10 14:46:00,35.7,33.6,29.76,NNE,15,0.0,0.0,92,0.04,,,0.79,WeatherDisplay:10.37,2013-11-10 23:46:00,
2013-11-10 14:51:00,35.7,33.6,29.75,NNE,15,0.0,0.0,92,0.05,RA,,0.80,WeatherDisplay:10.37,2013-11-10 23:51:00,
2013-11-10 14:56:00,35.8,33.7,29.75,NNE,15,0.0,0.0,92,0.05,RA,,0.81,WeatherDisplay:10.37,2013-11-10 23:56:00,
2013-11-10 15:01:00,35.9,33.8,29.75,NNE,15,0.0,0.0,92,0.05,RA,,0.81,WeatherDisplay:10.37,2013-11-11 00:01:00,
2013-11-10 15:06:00,35.9,33.8,29.75,NNE,15,0.0,0.0,92,0.05,,,0.81,WeatherDisplay:10.37,2013-11-11 00:06:00,
2013-11-10 15:11:00,36.0,33.9,29.75,NNE,15,0.0,0.0,92,0.05,RA,,0.82,WeatherDisplay:10.37,2013-11-11 00:11:00,
2013-11-10 15:16:00,36.0,33.9,29.75,NNE,15,0.0,0.0,92,0.05,RA,,0.82,WeatherDisplay:10.37,2013-11-11 00:16:00,
2013-11-10 15:21:00,36.0,33.9,29.74,NNE,15,0.0,0.0,92,0.05,,,0.82,WeatherDisplay:10.37,2013-11-11 00:21:00,
2013-11-10 15:26:00,36.1,33.7,29.74,NNE,15,0.0,0.0,91,0.05,RA,,0.83,WeatherDisplay:10.37,2013-11-11 00:26:00,
2013-11-10 15:31:00,36.1,34.0,29.74,NNE,15,0.0,0.0,92,0.05,RA,,0.83,WeatherDisplay:10.37,2013-11-11 00:31:00,
2013-11-10 15:36:00,36.1,33.7,29.74,NNE,15,0.0,0.0,91,0.04,,,0.83,WeatherDisplay:10.37,2013-11-11 00:36:00,
2013-11-10 15:41:00,36.0,33.9,29.73,NNE,15,0.0,0.0,92,0.04,CLR,,0.83,WeatherDisplay:10.37,2013-11-11 00:41:00,
2013-11-10 15:46:00,36.0,33.9,29.73,NNE,15,0.0,0.0,92,0.05,RA,,0.84,WeatherDisplay:10.37,2013-11-11 00:46:00,
2013-11-10 15:51:00,36.0,33.9,29.73,NNE,15,0.0,0.0,92,0.04,RA,,0.84,WeatherDisplay:10.37,2013-11-11 00:51:00,
2013-11-10 15:56:00,36.0,33.9,29.73,NNE,15,0.0,0.0,92,0.03,,,0.84,WeatherDisplay:10.37,2013-11-11 00:56:00,
2013-11-10 16:01:00,35.9,33.8,29.73,NNE,15,0.0,0.0,92,0.04,RA,,0.85,WeatherDisplay:10.37,2013-11-11 01:01:00,
2013-11-10 16:06:00,35.9,33.8,29.72,NNE,15,0.0,0.0,92,0.04,RA,,0.85,WeatherDisplay:10.37,2013-11-11 01:06:00,
2013-11-10 16:11:00,35.8,33.7,29.72,NNE,15,0.0,0.0,92,0.03,CLR,,0.85,WeatherDisplay:10.37,2013-11-11 01:11:00,
2013-11-10 16:16:00,35.7,33.6,29.72,NNE,15,0.0,0.0,92,0.04,RA,,0.86,WeatherDisplay:10.37,2013-11-11 01:16:00,
2013-11-10 16:21:00,35.6,33.5,29.72,NNE,15,0.0,0.0,92,0.04,RA,,0.86,WeatherDisplay:10.37,2013-11-11 01:21:00,
2013-11-10 16:26:00,35.6,33.8,29.72,NNE,15,0.0,0.0,93,0.04,RA,,0.87,WeatherDisplay:10.37,2013-11-11 01:26:00,
2013-11-10 16:31:00,35.5,33.7,29.72,NNE,15,0.0,0.0,93,0.04,RA,,0.87,WeatherDisplay:10.37,2013-11-11 01:31:00,
2013-11-10 16:36:00,35.5,33.7,29.72,NNE,15,0.0,0.0,93,0.05,RA,,0.88,WeatherDisplay:10.37,2013-11-11 01:36:00,
2013-11-10 16:41:00,35.5,33.7,29.72,NNE,15,0.0,0.0,93,0.05,RA,,0.88,WeatherDisplay:10.37,2013-11-11 01:41:00,
2013-11-10 16:46:00,35.5,33.7,29.72,NNE,15,0.0,0.0,93,0.05,RA,,0.89,WeatherDisplay:10.37,2013-11-11 01:46:00,
2013-11-10 16:51:00,35.4,33.6,29.72,NNE,15,0.0,0.0,93,0.05,RA,,0.89,WeatherDisplay:10.37,2013-11-11 01:51:00,
2013-11-10 16:56:00,35.5,33.7,29.72,NNE,15,0.0,0.0,93,0.05,,,0.89,WeatherDisplay:10.37,2013-11-11 01:56:00,
2013-11-10 17:01:00,35.5,33.7,29.72,NNE,15,0.0,0.0,93,0.04,CLR,,0.89,WeatherDisplay:10.37,2013-11-11 02:01:00,
2013-11-10 17:06:00,35.5,33.7,29.72,NNE,15,0.0,0.0,93,0.05,RA,,0.90,WeatherDisplay:10.37,2013-11-11 02:06:00,
2013-11-10 17:11:00,35.5,33.7,29.72,NNE,15,0.0,0.0,93,0.05,RA,,0.90,WeatherDisplay:10.37,2013-11-11 02:11:00,
2013-11-10 17:16:00,35.5,33.7,29.71,NNE,15,0.0,0.0,93,0.04,,,0.90,WeatherDisplay:10.37,2013-11-11 02:16:00,
2013-11-10 17:21:00,35.5,33.7,29.71,NNE,15,0.0,0.0,93,0.04,CLR,,0.90,WeatherDisplay:10.37,2013-11-11 02:21:00,
2013-11-10 17:26:00,35.6,33.8,29.71,NNE,15,0.0,0.0,93,0.03,CLR,,0.90,WeatherDisplay:10.37,2013-11-11 02:26:00,
2013-11-10 17:31:00,35.6,33.8,29.71,NNE,15,0.0,0.0,93,0.03,CLR,,0.90,WeatherDisplay:10.37,2013-11-11 02:31:00,
2013-11-10 17:36:00,35.6,33.8,29.71,NNE,15,0.0,0.0,93,0.03,RA,,0.91,WeatherDisplay:10.37,2013-11-11 02:36:00,
2013-11-10 17:41:00,35.6,33.8,29.71,NNE,15,0.0,0.0,93,0.03,RA,,0.91,WeatherDisplay:10.37,2013-11-11 02:41:00,
2013-11-10 17:46:00,35.6,33.8,29.71,NNE,15,0.0,0.0,93,0.02,CLR,,0.91,WeatherDisplay:10.37,2013-11-11 02:46:00,
2013-11-10 17:51:00,35.6,33.8,29.72,NNE,15,0.0,0.0,93,0.02,CLR,,0.91,WeatherDisplay:10.37,2013-11-11 02:51:00,
2013-11-10 17:56:00,35.6,33.8,29.71,NNE,15,0.0,0.0,93,0.02,CLR,,0.91,WeatherDisplay:10.37,2013-11-11 02:56:00,
2013-11-10 18:01:00,35.7,33.9,29.71,NNE,15,0.0,0.0,93,0.02,CLR,,0.91,WeatherDisplay:10.37,2013-11-11 03:01:00,
2013-11-10 18:06:00,35.7,33.9,29.71,NNE,15,0.0,0.0,93,0.01,CLR,,0.91,WeatherDisplay:10.37,2013-11-11 03:06:00,
2013-11-10 18:11:00,35.7,33.9,29.71,NNE,15,0.0,0.0,93,0.01,CLR,,0.91,WeatherDisplay:10.37,2013-11-11 03:11:00,
2013-11-10 18:16:00,35.7,33.9,29.71,NNE,15,0.0,0.0,93,0.01,CLR,,0.91,WeatherDisplay:10.37,2013-11-11 03:16:00,
2013-11-10 18:21:00,35.7,33.6,29.71,NNE,15,0.0,0.0,92,0.01,CLR,,0.91,WeatherDisplay:10.37,2013-11-11 03:21:00,
2013-11-10 18:26:00,35.7,33.6,29.71,NNE,15,0.0,0.0,92,0.02,RA,,0.92,WeatherDisplay:10.37,2013-11-11 03:26:00,
2013-11-10 18:31:00,35.8,33.7,29.71,NNE,15,0.0,0.0,92,0.02,RA,,0.92,WeatherDisplay:10.37,2013-11-11 03:31:00,
2013-11-10 18:36:00,35.8,33.7,29.71,NNE,15,0.0,0.0,92,0.01,,,0.92,WeatherDisplay:10.37,2013-11-11 03:36:00,
2013-11-10 18:41:00,35.8,33.7,29.71,NNE,15,0.0,0.0,92,0.01,CLR,,0.92,WeatherDisplay:10.37,2013-11-11 03:41:00,
2013-11-10 18:46:00,35.8,33.7,29.71,NNE,15,0.0,0.0,92,0.01,CLR,,0.92,WeatherDisplay:10.37,2013-11-11 03:46:00,
2013-11-10 18:51:00,35.8,33.7,29.71,NNE,15,0.0,0.0,92,0.02,RA,,0.93,WeatherDisplay:10.37,2013-11-11 03:51:00,
2013-11-10 18:56:00,35.8,33.7,29.71,NNE,15,0.0,0.0,92,0.02,RA,,0.93,WeatherDisplay:10.37,2013-11-11 03:56:00,
2013-11-10 19:01:00,35.7,33.6,29.71,NNE,15,0.0,0.0,92,0.02,CLR,,0.93,WeatherDisplay:10.37,2013-11-11 04:01:00,
2013-11-10 19:06:00,35.8,34.0,29.71,NNE,15,0.0,0.0,93,0.02,CLR,,0.93,WeatherDisplay:10.37,2013-11-11 04:06:00,
2013-11-10 19:11:00,35.7,33.9,29.71,NNE,15,0.0,0.0,93,0.02,CLR,,0.93,WeatherDisplay:10.37,2013-11-11 04:11:00,
2013-11-10 19:16:00,35.7,33.9,29.71,NNE,15,0.0,0.0,93,0.03,RA,,0.94,WeatherDisplay:10.37,2013-11-11 04:16:00,
2013-11-10 19:21:00,35.7,33.9,29.71,NNE,15,0.0,0.0,93,0.03,RA,,0.94,WeatherDisplay:10.37,2013-11-11 04:21:00,
2013-11-10 19:26:00,35.6,33.8,29.71,NNE,15,0.0,0.0,93,0.02,,,0.94,WeatherDisplay:10.37,2013-11-11 04:26:00,
2013-11-10 19:31:00,35.6,33.8,29.71,NNE,15,0.0,0.0,93,0.03,RA,,0.95,WeatherDisplay:10.37,2013-11-11 04:31:00,
2013-11-10 19:36:00,35.5,33.7,29.71,NNE,15,0.0,0.0,93,0.03,RA,,0.95,WeatherDisplay:10.37,2013-11-11 04:36:00,
2013-11-10 19:41:00,35.5,33.7,29.71,NNE,15,0.0,0.0,93,0.03,CLR,,0.95,WeatherDisplay:10.37,2013-11-11 04:41:00,
2013-11-10 19:46:00,35.4,33.8,29.71,NNE,15,0.0,0.0,94,0.03,CLR,,0.95,WeatherDisplay:10.37,2013-11-11 04:46:00,
2013-11-10 19:51:00,35.4,33.8,29.71,NNE,15,0.0,0.0,94,0.03,RA,,0.96,WeatherDisplay:10.37,2013-11-11 04:51:00,
2013-11-10 19:56:00,35.4,33.8,29.71,NNE,15,0.0,0.0,94,0.03,RA,,0.96,WeatherDisplay:10.37,2013-11-11 04:56:00,
2013-11-10 20:01:00,35.4,33.8,29.71,NNE,15,0.0,0.0,94,0.03,,,0.96,WeatherDisplay:10.37,2013-11-11 05:01:00,
2013-11-10 20:02:00,35.4,33.8,29.71,NNE,15,0.0,0.0,94,0.03,CLR,,0.96,WeatherDisplay:10.37,2013-11-11 05:02:00,
2013-11-10 20:07:00,35.4,33.8,29.71,NNE,15,0.0,0.0,94,0.03,CLR,,0.96,WeatherDisplay:10.37,2013-11-11 05:07:00,
2013-11-10 20:12:00,35.4,33.8,29.71,NNE,15,0.0,0.0,94,0.04,RA,,0.97,WeatherDisplay:10.37,2013-11-11 05:12:00,
2013-11-10 20:17:00,35.3,33.7,29.71,NNE,15,0.0,0.0,94,0.03,RA,,0.97,WeatherDisplay:10.37,2013-11-11 05:17:00,
2013-11-10 20:22:00,35.3,33.7,29.71,NNE,15,0.0,0.0,94,0.03,CLR,,0.97,WeatherDisplay:10.37,2013-11-11 05:22:00,
2013-11-10 20:27:00,35.3,33.7,29.72,NNE,15,0.0,0.0,94,0.04,RA,,0.98,WeatherDisplay:10.37,2013-11-11 05:27:00,
2013-11-10 20:32:00,35.3,33.7,29.72,NNE,15,0.0,0.0,94,0.03,RA,,0.98,WeatherDisplay:10.37,2013-11-11 05:32:00,
2013-11-10 20:37:00,35.3,33.7,29.72,NNE,15,0.0,0.0,94,0.03,,,0.98,WeatherDisplay:10.37,2013-11-11 05:37:00,
2013-11-10 20:42:00,35.3,33.7,29.72,NNE,15,0.0,0.0,94,0.04,RA,,0.99,WeatherDisplay:10.37,2013-11-11 05:42:00,
2013-11-10 20:47:00,35.2,33.6,29.72,NNE,15,0.0,0.0,94,0.04,RA,,0.99,WeatherDisplay:10.37,2013-11-11 05:47:00,
2013-11-10 20:52:00,35.1,33.5,29.72,NNE,15,0.0,0.0,94,0.03,,,0.99,WeatherDisplay:10.37,2013-11-11 05:52:00,
2013-11-10 20:57:00,35.0,33.4,29.72,NNE,15,0.0,0.0,94,0.03,CLR,,0.99,WeatherDisplay:10.37,2013-11-11 05:57:00,
2013-11-10 21:02:00,34.9,33.3,29.72,NNE,15,0.0,0.0,94,0.03,CLR,,0.99,WeatherDisplay:10.37,2013-11-11 06:02:00,
2013-11-10 21:07:00,34.8,33.2,29.72,NNE,15,0.0,0.0,94,0.03,CLR,,0.99,WeatherDisplay:10.37,2013-11-11 06:07:00,
2013-11-10 21:12:00,34.8,33.2,29.72,NNE,15,0.0,0.0,94,0.03,RA,,1.00,WeatherDisplay:10.37,2013-11-11 06:12:00,
2013-11-10 21:17:00,34.8,33.2,29.72,NNE,15,0.0,0.0,94,0.03,RA,,1.00,WeatherDisplay:10.37,2013-11-11 06:17:00,
2013-11-10 21:22:00,34.8,33.2,29.72,NNE,15,0.0,0.0,94,0.03,CLR,,1.00,WeatherDisplay:10.37,2013-11-11 06:22:00,
2013-11-10 21:27:00,34.8,33.2,29.72,NNE,15,0.0,0.0,94,0.02,CLR,,1.00,WeatherDisplay:10.37,2013-11-11 06:27:00,
2013-11-10 21:32:00,34.9,33.3,29.72,NNE,15,0.0,0.0,94,0.02,CLR,,1.00,WeatherDisplay:10.37,2013-11-11 06:32:00,
2013-11-10 21:37:00,35.0,33.4,29.72,NNE,15,0.0,0.0,94,0.02,CLR,,1.00,WeatherDisplay:10.37,2013-11-11 06:37:00,
2013-11-10 21:42:00,35.1,33.5,29.72,NNE,15,0.0,0.0,94,0.02,RA,,1.01,WeatherDisplay:10.37,2013-11-11 06:42:00,
2013-11-10 21:47:00,35.2,33.6,29.72,NNE,15,0.0,0.0,94,0.02,RA,,1.01,WeatherDisplay:10.37,2013-11-11 06:47:00,
2013-11-10 21:52:00,35.3,33.7,29.72,NNE,15,0.0,0.0,94,0.02,,,1.01,WeatherDisplay:10.37,2013-11-11 06:52:00,
2013-11-10 21:57:00,35.3,33.7,29.72,NNE,15,0.0,0.0,94,0.02,CLR,,1.01,WeatherDisplay:10.37,2013-11-11 06:57:00,
2013-11-10 22:02:00,35.5,33.9,29.72,NNE,15,0.0,0.0,94,0.02,CLR,,1.01,WeatherDisplay:10.37,2013-11-11 07:02:00,
2013-11-10 22:07:00,35.8,34.2,29.72,NNE,15,0.0,0.0,94,0.02,CLR,,1.01,WeatherDisplay:10.37,2013-11-11 07:07:00,
2013-11-10 22:12:00,36.0,34.2,29.72,NNE,15,0.0,0.0,93,0.01,CLR,,1.01,WeatherDisplay:10.37,2013-11-11 07:12:00,
2013-11-10 22:17:00,36.3,33.9,29.72,NNE,15,0.0,0.0,91,0.01,CLR,,1.01,WeatherDisplay:10.37,2013-11-11 07:17:00,
2013-11-10 22:22:00,36.6,33.4,29.72,NNE,14,0.0,0.0,88,0.01,CLR,,1.01,WeatherDisplay:10.37,2013-11-11 07:22:00,
2013-11-10 22:27:00,37.3,32.9,29.72,NNE,14,0.0,0.0,84,0.02,RA,,1.02,WeatherDisplay:10.37,2013-11-11 07:27:00,
2013-11-10 22:32:00,37.5,32.8,29.73,NNE,14,0.0,0.0,83,0.02,RA,,1.02,WeatherDisplay:10.37,2013-11-11 07:32:00,
2013-11-10 22:37:00,37.5,32.5,29.72,NNE,14,0.0,0.0,82,0.02,CLR,,1.02,WeatherDisplay:10.37,2013-11-11 07:37:00,
2013-11-10 22:42:00,37.7,32.7,29.73,NNE,14,0.0,0.0,82,0.01,CLR,,1.02,WeatherDisplay:10.37,2013-11-11 07:42:00,
2013-11-10 22:47:00,37.6,32.6,29.73,NNE,14,0.0,0.0,82,0.02,RA,,1.03,WeatherDisplay:10.37,2013-11-11 07:47:00,
2013-11-10 22:52:00,37.5,31.9,29.73,NNE,14,0.0,0.0,80,0.02,RA,,1.03,WeatherDisplay:10.37,2013-11-11 07:52:00,
2013-11-10 22:57:00,37.5,31.9,29.73,NNE,14,0.0,0.0,80,0.02,,,1.03,WeatherDisplay:10.37,2013-11-11 07:57:00,
2013-11-10 23:02:00,37.3,32.0,29.73,NNE,14,0.0,0.0,81,0.02,CLR,,1.03,WeatherDisplay:10.37,2013-11-11 08:02:00,
2013-11-10 23:07:00,37.3,32.0,29.73,NNE,14,0.0,0.0,81,0.03,RA,,1.04,WeatherDisplay:10.37,2013-11-11 08:07:00,
2013-11-10 23:12:00,37.2,31.9,29.73,NNE,14,0.0,0.0,81,0.03,RA,,1.04,WeatherDisplay:10.37,2013-11-11 08:12:00,
2013-11-10 23:17:00,37.3,31.7,29.73,NNE,14,0.0,0.0,80,0.03,,,1.04,WeatherDisplay:10.37,2013-11-11 08:17:00,
2013-11-10 23:22:00,37.3,31.7,29.73,NNE,14,0.0,0.0,80,0.03,CLR,,1.04,WeatherDisplay:10.37,2013-11-11 08:22:00,
2013-11-10 23:27:00,37.5,31.3,29.73,NNE,14,0.0,0.0,78,0.02,CLR,,1.04,WeatherDisplay:10.37,2013-11-11 08:27:00,
2013-11-10 23:32:00,37.5,31.3,29.73,NNE,14,0.0,0.0,78,0.02,CLR,,1.04,WeatherDisplay:10.37,2013-11-11 08:32:00,
2013-11-10 23:37:00,37.5,31.3,29.73,NNE,14,0.0,0.0,78,0.02,CLR,,1.04,WeatherDisplay:10.37,2013-11-11 08:37:00,
2013-11-10 23:42:00,37.7,30.8,29.73,NNE,14,0.0,0.0,76,0.02,CLR,,1.04,WeatherDisplay:10.37,2013-11-11 08:42:00,
2013-11-10 23:47:00,37.9,30.4,29.73,NNE,14,0.0,0.0,74,0.01,CLR,,1.04,WeatherDisplay:10.37,2013-11-11 08:47:00,
2013-11-10 23:52:00,38.1,30.9,29.73,NNE,14,0.0,0.0,75,0.01,CLR,,1.04,WeatherDisplay:10.37,2013-11-11 08:52:00,
2013-11-10 23:57:00,38.2,30.6,29.73,NNE,14,0.0,0.0,74,0.01,CLR,,1.04,WeatherDisplay:10.37,2013-11-11 08:57:00,